{"data":{"norad_id":65210,"epoch":"2026-09-20T10:36:13.919328Z","epoch_age_seconds":125242,"freshness":"FRESH","line1":"1 65210U 25176N   26263.44182777  .00012053  00000+0  36722-3 0  9997","line2":"2 65210  53.1610 324.1716 0001198  80.8764 279.2374 15.34406307 62991","mean_motion":15.34406307,"eccentricity":0.0001198,"inclination_deg":53.161,"raan_deg":324.1716,"arg_perigee_deg":80.8764,"mean_anomaly_deg":279.2374,"bstar":0.00036722,"rev_number":6299,"period_min":93.847372330958,"perigee_km":461.86496412313,"apogee_km":463.50402495322,"semimajor_km":6840.8214945382,"source":"CELESTRAK","updated_at":"2026-09-21T09:00:35.535683Z"}}